Ephrata, WA

3:31 PM PST on February 22, 2018 (GMT -0800)
Ephrata Municipal

Weather History for KEPH - November, 2012

Change the Weather History Date:

Saturday, November 10, 2012

  Actual Average Record
Temperature  
Mean Temperature 30 °F 39 °F  
Max Temperature 38 °F 48 °F 67 °F (1990)
Min Temperature 22 °F 31 °F 17 °F (1986)
Degree Days  
Heating Degree Days 35 26  
Month to date heating degree days 198 238  
Since 1 July heating degree days 693 819  
Cooling Degree Days 0 0  
Month to date cooling degree days 0 0  
Year to date cooling degree days 837 772  
Moisture  
Dew Point 26 °F    
Average Humidity 75    
Maximum Humidity 85    
Minimum Humidity 64    
Precipitation  
Precipitation T in 0.03 in 0.79 in (1983)
Month to date precipitation 0.07 0.31  
Year to date precipitation 5.93 5.86  
Sea Level Pressure  
Sea Level Pressure 30.06 in    
Wind  
Wind Speed 4 mph (North)    
Max Wind Speed 10 mph    
Max Gust Speed 12 mph    
Visibility 10 miles    
Events      
T = Trace of Precipitation, MM = Missing Value Source: NWS Daily Summary

Daily Weather History Graph

Daily Weather History Graph

Search for Another Location

Airport or City:

Trip Planner

Search our weather history database for the weather conditions in past years. The results will help you decide how hot, cold, wet, or windy it might be!

Date:

Astronomy

Nov. 10, 2012 Rise Set
Actual Time 6:55 AM PST 4:27 PM PST
Civil Twilight 6:22 AM PST 5:00 PM PST
Nautical Twilight 5:46 AM PST 5:37 PM PST
Astronomical Twilight 5:10 AM PST 6:13 PM PST
Moon 2:53 AM PST (11/10) 2:28 PM PST (11/10)
Length of Visible Light 10h 37m
Length of Day
9h 31m
Waning Crescent, 13% of the Moon is Illuminated
Nov 10
Waning Crescent
Nov 13
New
Nov 20
First Quarter
Nov 28
Full
Dec 6
Last Quarter

Hourly Weather History & Observations

Time (PST) Temp. Windchill Dew Point Humidity Pressure Visibility Wind Dir Wind Speed Gust Speed Precip Events Conditions
12:05 AM 33.8 °F 29.6 °F 28.4 °F 81% 29.91 in 10.0 mi NE 4.6 mph - N/A   Overcast
12:36 AM 33.8 °F - 28.4 °F 81% 29.91 in 10.0 mi Calm Calm - N/A   Overcast
12:53 AM 34.0 °F 31.0 °F 28.9 °F 82% 29.95 in 10.0 mi NE 3.5 mph - N/A   Overcast
1:29 AM 33.8 °F - 28.4 °F 81% 29.93 in 10.0 mi Calm Calm - N/A   Overcast
1:53 AM 34.0 °F - 28.9 °F 82% 29.96 in 10.0 mi Calm Calm - N/A   Overcast
2:14 AM 33.8 °F 30.8 °F 28.4 °F 81% 29.94 in 10.0 mi NW 3.5 mph - N/A   Overcast
2:53 AM 34.0 °F 29.8 °F 26.1 °F 73% 29.97 in 10.0 mi NNW 4.6 mph - N/A   Overcast
3:53 AM 33.1 °F 28.7 °F 24.1 °F 70% 29.98 in 10.0 mi North 4.6 mph - N/A   Overcast
4:53 AM 32.0 °F 26.4 °F 26.1 °F 79% 29.99 in 10.0 mi NNE 5.8 mph - N/A   Overcast
5:53 AM 33.1 °F 26.9 °F 26.1 °F 75% 30.01 in 10.0 mi NNW 6.9 mph - N/A   Overcast
6:05 AM 33.8 °F 27.0 °F 24.8 °F 70% 29.98 in 10.0 mi NNW 8.1 mph - N/A   Overcast
6:53 AM 32.0 °F 24.2 °F 26.1 °F 79% 30.03 in 10.0 mi North 9.2 mph - N/A   Overcast
7:19 AM 32.0 °F 24.2 °F 26.6 °F 80% 30.00 in 10.0 mi North 9.2 mph - N/A   Overcast
7:53 AM 32.0 °F 27.5 °F 27.0 °F 82% 30.05 in 10.0 mi North 4.6 mph - N/A   Overcast
8:53 AM 33.1 °F 26.9 °F 26.1 °F 75% 30.06 in 10.0 mi North 6.9 mph - N/A   Overcast
9:09 AM 33.8 °F 28.6 °F 26.6 °F 75% 30.03 in 10.0 mi North 5.8 mph - N/A   Overcast
9:17 AM 33.8 °F 27.7 °F 26.6 °F 75% 30.04 in 10.0 mi North 6.9 mph - N/A   Overcast
9:53 AM 34.0 °F 28.8 °F 26.1 °F 73% 30.08 in 10.0 mi North 5.8 mph - N/A   Overcast
10:53 AM 35.1 °F 30.1 °F 26.1 °F 70% 30.09 in 10.0 mi NNE 5.8 mph - 0.00 in   Overcast
11:53 AM 36.0 °F 31.1 °F 26.1 °F 67% 30.09 in 10.0 mi NE 5.8 mph - N/A   Overcast
12:53 PM 36.0 °F - 26.1 °F 67% 30.11 in 10.0 mi Calm Calm - N/A   Mostly Cloudy
1:04 PM 35.6 °F - 26.6 °F 70% 30.07 in 10.0 mi Calm Calm - N/A   Mostly Cloudy
1:53 PM 36.0 °F 33.3 °F 26.1 °F 67% 30.11 in 10.0 mi East 3.5 mph - N/A   Mostly Cloudy
2:53 PM 37.9 °F - 26.1 °F 62% 30.13 in 10.0 mi Calm Calm - N/A   Clear
3:53 PM 36.0 °F - 26.1 °F 67% 30.15 in 10.0 mi Calm Calm - N/A   Overcast
4:53 PM 28.9 °F 21.9 °F 24.1 °F 82% 30.16 in 10.0 mi SSW 6.9 mph - N/A   Clear
5:53 PM 28.0 °F 24.2 °F 24.1 °F 85% 30.18 in 10.0 mi SW 3.5 mph - N/A   Clear
6:53 PM 27.0 °F - 23.0 °F 85% 30.19 in 10.0 mi Calm Calm - N/A   Clear
9:53 PM 28.9 °F 22.8 °F 21.9 °F 75% 30.21 in 10.0 mi NW 5.8 mph - N/A   Clear
10:53 PM 26.1 °F - 21.0 °F 81% 30.22 in 10.0 mi Calm Calm - N/A   Clear
11:53 PM 24.1 °F 19.7 °F 19.0 °F 81% 30.24 in 10.0 mi NNE 3.5 mph - N/A   Clear